Year,Month,Day,Hour,Minute,Value (Times are PST for temperature in C)
2017,08,16,00,27,14.70
2017,08,16,00,28,14.70
2017,08,16,00,29,14.70
2017,08,16,01,27,14.20
2017,08,16,01,28,14.20
2017,08,16,01,29,14.20
2017,08,16,02,27,13.70
2017,08,16,02,28,13.70
2017,08,16,02,29,13.70
2017,08,16,03,27,13.50
2017,08,16,03,28,13.50
2017,08,16,03,29,13.50
2017,08,16,04,27,13.30
2017,08,16,04,28,13.30
2017,08,16,04,29,13.30
2017,08,16,05,27,13.30
2017,08,16,05,28,13.20
2017,08,16,05,29,13.20
2017,08,16,06,27,13.10
2017,08,16,06,28,13.10
2017,08,16,06,29,13.10
2017,08,16,07,27,13.60
2017,08,16,07,28,13.60
2017,08,16,07,29,13.60
2017,08,16,08,27,15.20
2017,08,16,08,28,15.20
2017,08,16,08,29,15.30
2017,08,16,09,27,15.60
2017,08,16,09,28,15.60
2017,08,16,09,29,15.60
2017,08,16,10,27,16.10
2017,08,16,10,28,16.10
2017,08,16,10,29,16.10
2017,08,16,11,27,16.60
2017,08,16,11,28,16.70
2017,08,16,11,29,16.70
2017,08,16,12,27,19.90
2017,08,16,12,28,19.90
2017,08,16,12,29,19.80
2017,08,16,13,27,20.80
2017,08,16,13,28,20.80
2017,08,16,13,29,20.90
2017,08,16,14,27,22.90
2017,08,16,14,28,22.90
2017,08,16,14,29,23.10
2017,08,16,15,27,23.90
2017,08,16,15,28,23.90
2017,08,16,15,29,23.90
2017,08,16,16,26,23.70
2017,08,16,16,27,23.70
2017,08,16,16,28,23.80
2017,08,16,16,29,23.80
2017,08,16,17,26,23.70
2017,08,16,17,27,23.70
2017,08,16,17,28,23.70
2017,08,16,17,29,23.70
2017,08,16,18,26,23.10
2017,08,16,18,27,23.10
2017,08,16,18,28,23.10
2017,08,16,18,29,22.90
2017,08,16,19,26,21.30
2017,08,16,19,27,21.30
2017,08,16,19,28,21.20
2017,08,16,19,29,21.20
2017,08,16,20,26,19.50
2017,08,16,20,27,19.50
2017,08,16,20,28,19.50
2017,08,16,20,29,19.50
2017,08,16,21,26,18.50
2017,08,16,21,27,18.50
2017,08,16,21,28,18.50
2017,08,16,21,29,18.50
2017,08,16,22,26,18.10
2017,08,16,22,27,18.10
2017,08,16,22,28,18.10
2017,08,16,22,29,18.10
2017,08,16,22,30,18.10
2017,08,16,22,31,18.10
2017,08,16,22,32,18.10
2017,08,16,22,33,17.90
2017,08,16,22,34,17.90
2017,08,16,23,26,17.40
2017,08,16,23,27,17.30
2017,08,16,23,28,17.30
2017,08,16,23,29,17.30
